Regional Weather Roundup
Issued by NWS

Home | Current Version | Previous Version | Text Only | Print | Product List | Glossary On
Versions: 1 2 3 4 5 6 7 8 9 10 11 12 13 14 15 16 17 18 19 20 21 22 23 24 25 26 27 28 29 30 31 32 33 34 35 36 37 38 39 40 41 42 43 44 45 46 47 48 49 50
296
ASUS43 KMKX 200300
RWRWI

WISCONSIN REGIONAL WEATHER ROUNDUP
NATIONAL WEATHER SERVICE MILWAUKEE/SULLIVAN WI
900 PM CST MON FEB 19 2018

NOTE: "FAIR" INDICATES FEW OR NO CLOUDS BELOW 12,000 FEET WITH NO
SIGNIFICANT WEATHER AND/OR OBSTRUCTIONS TO VISIBILITY.

WIZ001-002-006>008-014>016-023>028-200400-
NORTHWEST WISCONSIN

CITY           SKY/WX    TMP DP  RH WIND       PRES   REMARKS
SUPERIOR ARPT  LGT SNOW  17  14  88 NE16G25   30.06F WCI   1
ASHLAND        LGT SNOW  19  16  88 NE24G32   30.04S FOG     WCI   2
HAYWARD        LGT SNOW  18  14  84 NE13      29.94F FOG     WCI   5
SIREN          LGT SNOW  18  14  86 NE6G16    29.97R WCI   9
CUMBERLAND     CLOUDY    19  16  86 NE12      29.90F FOG     WCI   7
RICE LAKE      CLOUDY    19  18  94 NE10      29.91F FOG     WCI   8
CHETEK         CLOUDY    19  17  92 NE10G18   29.90S FOG     WCI   8
LADYSMITH      CLOUDY    20  18  92 NE10      29.90F FOG     WCI   9
EAU CLAIRE     NOT AVBL
MENOMONIE      CLOUDY    22  21  94 N12       29.88S FOG     WCI  11
NEW RICHMOND   CLOUDY    20  17  87 NE13      29.89F WCI   7
OSCEOLA        CLOUDY    20  17  89 NE13      29.94F WCI   7
$$

WIZ003>005-009-010-017-018-200400-
NORTH CENTRAL WISCONSIN

CITY           SKY/WX    TMP DP  RH WIND       PRES   REMARKS
MANITOWISH WTR LGT SNOW  16  16 100 NE10      29.91S WCI   3
ARBOR VITAE    MIX PCPN  19  17  91 NE8       29.90R WCI   9
WOODRUFF       MIX PCPN  19  17  91 NE8       29.90R WCI   9
RHINELANDER    FRZ RAIN  20  19  96 NE10      29.87S FOG     WCI   9
EAGLE RIVER    LGT SNOW  19  16  89 NE12      29.89S WCI   7
LAND O LAKES   MIX PCPN  19  17  93 N8        29.93R WCI   9
PHILLIPS       CLOUDY    17  17  98 NE10      29.90S FOG     WCI   5
TOMAHAWK       CLOUDY    19  18  93 N8        29.88S FOG     WCI   9
MEDFORD        MIX PCPN  22  20  92 NE8       29.84S WCI  12
MERRILL        MIX PCPN  23  22  96 NE7       29.86S WCI  14
$$

WIZ029-030-035-036-043>047-200400-
CENTRAL WISCONSIN

CITY           SKY/WX    TMP DP  RH WIND       PRES   REMARKS
WAUSAU         CLOUDY    25  24  96 NE6       29.82S FOG     WCI  18
MOSINEE        CLOUDY    25  25 100 NE9       29.84S FOG     WCI  15
MARSHFIELD     CLOUDY    26  24  92 E9        29.82R FOG     WCI  17
STEVENS POINT  MIX PCPN  24  24 100 NE10      29.83S WCI  14
WAUPACA        CLOUDY    30  28  90 NE8       29.84S FOG     WCI  23
WAUTOMA        LGT SNOW  29  27  92 NE12      29.81F FOG     WCI  19
WISC RAPIDS    CLOUDY    27  24  89 E9        29.82S FOG     WCI  18
CAMP DOUGLAS   CLOUDY    30  30 100 E5        29.79F FOG     WCI  25
$$

WIZ011>013-019>022-031-037>040-048>050-200400-
NORTHEAST WISCONSIN

CITY           SKY/WX    TMP DP  RH WIND       PRES   REMARKS
ANTIGO         CLOUDY    25  24  97 E13       29.83S FOG     WCI  13
SHAWANO        CLOUDY    29  27  91 NE12G17   29.87R FOG     WCI  20
OCONTO         CLOUDY    27  26  94 NE9G16    29.87F WCI  18
STURGEON BAY   MIX PCPN  32  30  92 NE10G17   29.86F FOG     WCI  24
GREEN BAY      CLOUDY    28  25  88 NE18      29.84F FOG     WCI  15
MANITOWOC      MIX PCPN  34  33  96 NE6       29.83S FOG     WCI  29
APPLETON       DRIZZLE   28  27  93 NE10G17   29.81F WCI  19
CLINTONVILLE   MIX PCPN  28  27  93 NE9       29.85S WCI  20
OSHKOSH        MIX PCPN  31  30  96 NE13      29.81S FOG     WCI  21
$$

WIZ032>034-041-042-053>061-200400-
SOUTHWEST WISCONSIN

CITY           SKY/WX    TMP DP  RH WIND       PRES   REMARKS
LA CROSSE      CLOUDY    34  32  92 NE7       29.80R FOG     WCI  28
SPARTA         CLOUDY    31  30  97 E8        29.81R FOG     WCI  23
VIROQUA        CLOUDY    33  33 100 E10       29.75R WCI  24
BOSCOBEL       CLOUDY    37  36  96 E3        29.77R FOG
PRAIRIE DU CHI CLOUDY    37  36  95 CALM      29.75R FOG
PLATTEVILLE    CLOUDY    37  37 100 SE6       29.73S WCI  32
$$

WIZ056-057-062-063-064-067-068-200400-
SOUTH CENTRAL WISCONSIN

CITY           SKY/WX    TMP DP  RH WIND       PRES   REMARKS
REEDSBURG      CLOUDY    31  31 100 NE7       29.77S FOG     WCI  24
BARABOO/DELLS  CLOUDY    31  30  97 NE6       29.77S FOG     WCI  25
LONE ROCK      CLOUDY    35  35 100 NE5       29.78R FOG     WCI  31
MINERAL POINT  LGT RAIN  37  37 100 E5        29.73S VSB 1/2 WCI  34
MADISON        LGT RAIN  35  34  96 NE6       29.77S FOG     WCI  30
MIDDLETON      CLOUDY    36  36 100 E5        29.76S WCI  32
WATERTOWN      LGT RAIN  36  36 100 E7        29.75F WCI  30
MONROE         RAIN      39  37  93 S5        29.74S VSB 3/4
JANESVILLE     FOG       37  37 100 CALM      29.74S VSB 1/4
$$

WIZ051-052-058>065-066-070>072-200400-
SOUTHEAST WISCONSIN

CITY           SKY/WX    TMP DP  RH WIND       PRES   REMARKS
MILWAUKEE      LGT RAIN  37  37 100 N5        29.79F FOG     WCI  33
WAUKESHA       LGT RAIN  34  34 100 E6        29.79F FOG     WCI  29
MILWAUKEE/TIMM RAIN      36  32  87 NE6       29.80F VSB 1   WCI  31
RACINE         FOG       36  36 100 CALM      29.81F VSB 1
BURLINGTON     MIX PCPN  36  35  96 E3        29.79S VSB 1/2
KENOSHA        LGT RAIN  37  36  96 CALM      29.79F VSB 1/2
FOND DU LAC    LGT SNOW  34  31  88 NE6       29.80S FOG     WCI  29
SHEBOYGAN      FOG       34  34 100 NE16      29.80F VSB 1   WCI  24
WEST BEND      HVY RAIN  34  34 100 NE6       29.80F WCI  29
JUNEAU         RAIN      33  33  98 NE6       29.78F WCI  28
$$

LSZ147-162-200400-
LAKE SUPERIOR

STATION/POSITION TIME  TEMP    WIND        PRES    WAVE
                       AIR SEA DIR/SP/G            HT/PER
                 (UTC) (F)     (DEG/KT/KT) (MB)    (FT/S)
DEVILS ISLAND    0200   19      40/ 28/ 33 1019.8F
SAXON HARBOR     0240   19      60/ 19/ 29 1016.6S
$$

LMZ867-665-643>646-200400-
LAKE MICHIGAN

STATION/POSITION TIME  TEMP    WIND        PRES    WAVE
                       AIR SEA DIR/SP/G            HT/PER
                 (UTC) (F)     (DEG/KT/KT) (MB)    (FT/S)
NORTHPORT PIER   0240   31                 1012.5F
KEWAUNEE LAKESHO 0230   33      40/ 13/ 18 1009.9F
SHEBOYGAN LAKESH 0200   35      20/ 14/ 15 1010.3F
PORT WASHINGTON  0240   36      20/  7/ 10 1010.5F
MILWAUKEE LAKESH 0230   35     360/  4/  6   N/A
KENOSHA   LAKESH 0200   36      20/  5/  7 1009.5
$$

TC  - TEMPERATURE IN CELSIUS
VSB - VISIBILITY IN STATUTE MILES
WCI - WIND CHILL INDEX
HX  - HEAT INDEX





USA.gov is the U.S. government's official web portal to all federal, state and local government web resources and services.